#timestamp,LO_Frequency,Hit,StdDev 
1509602415.6,286047013.0,N
1509602435.4,286047013.4,N
1509602455.2,286047013.6,N
1509602475.1,286047014.9,N
1509602476.0,286047014.9,N
1509602495.8,286047011.1,N
1509602515.7,286047013.9,N
1509602535.5,286047017.1,N
1509602555.3,286047015.3,N
1509602575.1,286047009.7,N
1509602595.9,286047007.7,N
1509602615.7,286047008.1,N
1509602635.5,286047005.1,N
1509602655.4,286047001.5,N
1509602675.2,286046998.6,N
1509602695.1,286047001.1,N
1509602696.0,286047001.1,N
1509602715.8,286046996.8,N
1509602735.6,286046993.6,N
1509602755.5,286046991.7,N
1509602775.3,286046992.8,N
1509602795.1,286046991.8,N
1509602815.9,286046993.8,N
1509602835.7,286046994.3,N
1509602855.5,286046993.5,N
1509602875.4,286046996.8,N
1509602895.2,286046999.2,N
1509602915.0,286046997.8,N
1509602915.9,286046997.8,N
1509602935.8,286046995.8,N
1509602955.6,286046995.8,N
1509602975.4,286047000.8,N
1509602995.3,286047001.6,N
1509603015.1,286046999.8,N
1509603035.8,286047001.7,N
1509603055.7,286047006.4,N
1509603075.5,286047005.9,N
1509603095.3,286047002.1,N
1509603115.2,286047004.3,N
1509603135.9,286047006.1,N
1509603155.7,286047010.2,N
1509603175.6,286047012.1,N
1509603195.4,286047012.0,N
1509603215.2,286047006.2,N
1509603235.1,286047010.1,N
1509603236.0,286047010.1,N
1509603255.8,286047013.3,N
1509603275.6,286047011.7,N
1509603295.5,286047010.5,N
1509603315.3,286047009.7,N
1509603335.1,286047009.4,N
1509603355.9,286047010.1,N
1509603375.7,286047011.4,N
1509603395.5,286047013.4,N
1509603415.4,286047017.2,N
1509603435.2,286047014.1,N
1509603455.0,286047017.5,N
1509603456.0,286047017.5,N
1509603475.8,286047018.3,Y
1509603495.6,286047010.0,P
1509603515.5,286047012.0,P
1509603535.3,286047014.2,P
1509603555.1,286047018.3,Y
1509603575.9,286047010.4,P
1509603595.7,286047009.6,P
1509603615.6,286047009.7,P
1509603635.4,286047010.6,Y
1509603655.2,286046996.6,P
1509603675.1,286046997.8,N
1509603676.0,286046997.8,N
1509603695.8,286046993.4,N
1509603715.6,286046993.3,N
1509603735.5,286046993.3,N
1509603755.3,286046994.2,N
1509603775.1,286046992.6,N
1509603795.9,286046994.8,N
1509603815.7,286046993.6,N
1509603835.5,286046994.5,N
1509603855.4,286046995.0,N
1509603875.2,286046997.8,N
1509603895.0,286046997.9,N
1509603896.0,286046997.9,N
1509603915.8,286046995.7,N
1509603935.6,286046994.6,N
1509603955.5,286046995.8,N
1509603975.3,286046998.3,N
1509603995.1,286047000.9,N
1509604015.9,286047001.4,N
1509604035.7,286047001.9,N
1509604055.5,286047001.4,N
1509604075.4,286047000.1,N
1509604095.2,286047002.3,N
1509604115.0,286047001.5,N
1509604115.9,286047001.5,N
1509604135.8,286047001.7,N
1509604155.6,286047001.7,N
1509604175.4,286047001.6,N
1509604195.3,286047004.3,N
1509604215.1,286047002.0,N
1509604216.0,286047002.0,N
1509604235.8,286047001.9,N
1509604255.7,286047003.6,N
1509604275.5,286047005.3,N
1509604295.3,286047007.3,N
1509604315.2,286047002.5,N
1509604335.9,286047003.9,N
1509604355.7,286047001.9,N
1509604375.6,286047001.9,N
1509604395.4,286047002.0,N
1509604415.2,286047000.4,N
1509604435.1,286046996.6,N
1509604436.0,286046996.6,N
1509604455.8,286047000.5,N
1509604475.6,286047002.5,N
1509604495.5,286047002.2,N
1509604515.3,286046998.5,N
1509604535.1,286046996.8,N
1509604555.9,286046993.4,N
1509604575.7,286046990.3,Y
1509604595.5,286046991.5,P
1509604615.4,286046988.7,N
1509604635.2,286046988.2,N
1509604655.0,286046989.4,N
1509604655.9,286046989.4,N
1509604675.8,286046988.2,N
1509604695.6,286046986.6,Y
1509604715.5,286046994.6,P
1509604735.3,286046993.8,P
1509604755.1,286046996.4,N
1509604775.9,286046997.3,N
1509604795.7,286046999.4,N
1509604815.5,286046997.3,N
1509604835.4,286046993.8,N
1509604855.2,286046991.8,Y
1509604875.0,286046997.2,P
1509604875.9,286046997.2,P
1509604895.8,286046994.9,P
1509604915.6,286046997.9,N
1509604935.4,286046995.4,Y
1509604955.3,286047001.0,P
1509604975.1,286046999.2,N
1509604995.9,286046999.4,N
1509605015.7,286046997.6,N
1509605035.5,286046995.3,Y
1509605055.4,286046996.9,P
1509605075.2,286046999.4,N
1509605095.0,286047000.5,N
1509605095.9,286047000.5,N
1509605115.8,286046995.1,Y
1509605135.6,286046996.8,P
1509605155.4,286046998.1,N
1509605175.3,286047001.4,N
1509605195.1,286047003.6,N
1509605215.8,286047004.1,N
1509605235.7,286047003.7,N
1509605255.5,286047001.7,N
1509605275.3,286047004.3,N
1509605295.2,286047002.6,N
1509605315.0,286047003.1,N
1509605315.9,286047003.1,N
1509605335.8,286047005.7,N
1509605355.6,286047008.1,Y
1509605375.4,286047009.2,P
1509605395.3,286047004.4,N
1509605415.1,286047001.9,N
1509605416.0,286047001.9,N
1509605435.8,286047003.4,N
1509605455.7,286047001.7,N
1509605475.5,286047004.3,N
1509605495.3,286047004.5,N
1509605515.2,286047007.2,Y
1509605535.0,286047005.0,P
1509605535.9,286047005.0,P
1509605555.7,286047003.2,P
1509605575.6,286047001.6,N
1509605595.4,286047000.6,N
1509605615.2,286047001.0,N
1509605635.1,286047001.0,N
1509605636.0,286047001.0,N
1509605655.8,286046998.8,N
1509605675.7,286047000.2,N
1509605695.5,286047000.0,N
1509605715.3,286047002.0,N
1509605735.2,286047002.5,N
1509605755.9,286047002.3,N
1509605775.7,286047001.2,N
1509605795.6,286046998.2,N
1509605815.4,286046999.8,N
1509605835.2,286046999.4,N
1509605855.1,286046997.7,N
1509605856.0,286046997.7,N
1509605875.8,286046997.3,N
1509605895.6,286046996.5,N
1509605915.5,286046999.6,N
1509605935.3,286046998.6,N
1509605955.1,286047000.6,N
1509605975.9,286047000.9,N
1509605995.7,286046998.2,N
